Location: Napoli
(40.8330°N, 14.2500°E)
Time: 23:50:37
(UTC+02:00)

ISS - Visible Passes

Search period start: 23 September 2018 00:00
Search period end: 03 October 2018 00:00
Orbit: 403 x 408 km, 51.6° (Epoch: 23 September)

Date Brightness Start Highest point End Pass type
(mag) Time Alt. Az. Time Alt. Az. Time Alt. Az.
23 Sep -3.1 19:33:18 10° SSW 19:36:22 36° SE 19:39:26 10° ENE visible
23 Sep -1.8 21:09:57 10° W 21:12:21 28° NW 21:12:21 28° NW visible
24 Sep -2.9 20:17:43 10° WSW 20:20:55 47° NNW 20:22:54 20° NE visible
25 Sep -3.8 19:25:40 10° SW 19:28:58 87° NW 19:32:17 10° NE visible
25 Sep -1.4 21:03:25 10° WNW 21:05:52 19° NNW 21:05:59 19° NNW visible
26 Sep -1.8 20:10:56 10° W 20:13:44 26° NNW 20:16:15 12° NNE visible
27 Sep -2.5 19:18:34 10° W 19:21:41 39° NNW 19:24:49 10° NE visible
27 Sep -1.1 20:56:59 10° NW 20:58:53 14° N 20:59:06 14° N visible
28 Sep -1.3 20:04:23 10° WNW 20:06:40 17° NNW 20:08:57 10° NNE visible
29 Sep -1.0 20:50:21 10° NNW 20:51:54 13° N 20:51:54 13° N visible
30 Sep -1.2 19:57:51 10° NW 19:59:37 14° N 20:01:23 10° NNE visible
01 Oct -1.1 20:43:10 10° NNW 20:44:32 13° N 20:44:32 13° N visible
02 Oct -1.2 19:51:01 10° NNW 19:52:35 13° N 19:54:09 10° NNE visible
